This is the latest recevied weather packets stored in our database for station/object PY2UEP-1. If no packets are shown the sender has not sent any weather packets the latest 10 day(s).
| Time | Temp. | Humidity | Pressure | Rain* | Wind** | Luminosity | Snow |
|---|---|---|---|---|---|---|---|
| 1787595965 | 26.11° C | 31% | 1018.9 hPa | 0 mm | - | - | - |
| 1787595665 | 26.67° C | 32% | 1019 hPa | 0 mm | - | - | - |
| 1787595365 | 26.11° C | 32% | 1019 hPa | 0 mm | - | - | - |
| 1787595065 | 26.67° C | 32% | 1019 hPa | 0 mm | - | - | - |
| 1787594765 | 26.67° C | 32% | 1019 hPa | 0 mm | - | - | - |
| 1787594465 | 26.67° C | 32% | 1019.1 hPa | 0 mm | - | - | - |
| 1787594165 | 26.11° C | 33% | 1019 hPa | 0 mm | - | - | - |
| 1787593866 | 25.56° C | 33% | 1019.1 hPa | 0 mm | - | - | - |
| 1787593565 | 25.56° C | 33% | 1019.1 hPa | 0 mm | - | - | - |
| 1787593265 | 25.56° C | 33% | 1019.3 hPa | 0 mm | - | - | - |
| 1787592965 | 26.11° C | 33% | 1019.3 hPa | 0 mm | - | - | - |
| 1787592665 | 26.11° C | 33% | 1019.5 hPa | 0 mm | - | - | - |
| 1787592365 | 26.11° C | 32% | 1019.5 hPa | 0 mm | - | - | - |
| 1787592065 | 26.11° C | 33% | 1019.6 hPa | 0 mm | - | - | - |
| 1787591765 | 26.11° C | 34% | 1019.7 hPa | 0 mm | - | - | - |
| 1787591466 | 26.11° C | 34% | 1019.8 hPa | 0 mm | - | - | - |
| 1787591165 | 25.56° C | 35% | 1019.8 hPa | 0 mm | - | - | - |
| 1787590870 | 25.56° C | 34% | 1019.9 hPa | 0 mm | - | - | - |
| 1787590565 | 25.56° C | 35% | 1020.1 hPa | 0 mm | - | - | - |
| 1787590265 | 25.56° C | 35% | 1020.1 hPa | 0 mm | - | - | - |
| 1787589965 | 25.56° C | 36% | 1020.2 hPa | 0 mm | - | - | - |
| 1787589665 | 25.56° C | 37% | 1020.2 hPa | 0 mm | - | - | - |
| 1787589365 | 25.56° C | 38% | 1020.4 hPa | 0 mm | - | - | - |
| 1787589065 | 25° C | 39% | 1020.2 hPa | 0 mm | - | - | - |
| 1787588765 | 25° C | 38% | 1020.4 hPa | 0 mm | - | - | - |
* Rain since midnight (hover to see other rain measurements)
** Current wind speed in m/s (hover to see current wind gust speed)